TimeAKST,TemperatureF,Dew PointF,Humidity,Sea Level PressureIn,VisibilityMPH,Wind Direction,Wind SpeedMPH,Gust SpeedMPH,PrecipitationIn,Events,Conditions,WindDirDegrees,DateUTC
12:16 AM,28.4,24.8,86,30.12,10.0,SSE,3.5,-,N/A,,Clear,160,2012-11-27 09:16:00
12:36 AM,30.2,26.6,86,30.12,10.0,South,4.6,-,N/A,,Partly Cloudy,170,2012-11-27 09:36:00
12:56 AM,30.2,26.6,86,30.12,10.0,SSE,3.5,-,N/A,,Partly Cloudy,150,2012-11-27 09:56:00
1:16 AM,30.2,26.6,86,30.11,10.0,Calm,Calm,-,N/A,,Clear,0,2012-11-27 10:16:00
1:36 AM,30.2,26.6,86,30.10,10.0,Calm,Calm,-,N/A,,Partly Cloudy,0,2012-11-27 10:36:00
1:56 AM,30.2,26.6,86,30.10,10.0,Calm,Calm,-,N/A,,Partly Cloudy,0,2012-11-27 10:56:00
2:16 AM,30.2,26.6,86,30.10,10.0,Calm,Calm,-,N/A,,Mostly Cloudy,0,2012-11-27 11:16:00
2:36 AM,30.2,26.6,86,30.09,10.0,Calm,Calm,-,N/A,,Scattered Clouds,0,2012-11-27 11:36:00
2:56 AM,30.2,26.6,86,30.08,10.0,Calm,Calm,-,N/A,,Clear,0,2012-11-27 11:56:00
3:16 AM,30.2,26.6,86,30.07,10.0,Calm,Calm,-,N/A,,Clear,0,2012-11-27 12:16:00
3:36 AM,30.2,24.8,80,30.06,10.0,South,3.5,-,N/A,,Clear,190,2012-11-27 12:36:00
3:56 AM,30.2,26.6,86,30.06,10.0,Calm,Calm,-,N/A,,Clear,0,2012-11-27 12:56:00
4:16 AM,30.2,26.6,86,30.05,10.0,Calm,Calm,-,N/A,,Clear,0,2012-11-27 13:16:00
4:36 AM,30.2,24.8,80,30.05,10.0,Calm,Calm,-,N/A,,Clear,0,2012-11-27 13:36:00
4:56 AM,28.4,24.8,86,30.04,10.0,Calm,Calm,-,N/A,,Clear,0,2012-11-27 13:56:00
5:16 AM,30.2,24.8,80,30.04,10.0,Calm,Calm,-,N/A,,Clear,0,2012-11-27 14:16:00
5:36 AM,30.2,24.8,80,30.04,10.0,Calm,Calm,-,N/A,,Partly Cloudy,0,2012-11-27 14:36:00
5:56 AM,30.2,24.8,80,30.04,10.0,Calm,Calm,-,N/A,,Clear,0,2012-11-27 14:56:00
6:16 AM,28.4,24.8,86,30.04,10.0,Calm,Calm,-,N/A,,Clear,0,2012-11-27 15:16:00
6:36 AM,30.2,24.8,80,30.03,10.0,Calm,Calm,-,N/A,,Clear,0,2012-11-27 15:36:00
6:56 AM,30.2,24.8,80,30.02,10.0,Calm,Calm,-,N/A,,Clear,0,2012-11-27 15:56:00
7:16 AM,30.2,24.8,80,30.02,10.0,Calm,Calm,-,N/A,,Clear,0,2012-11-27 16:16:00
7:36 AM,30.2,24.8,80,30.01,10.0,Calm,Calm,-,N/A,,Clear,0,2012-11-27 16:36:00
7:56 AM,30.2,24.8,80,30.01,10.0,Calm,Calm,-,N/A,,Clear,0,2012-11-27 16:56:00
8:16 AM,30.2,24.8,80,30.01,10.0,Calm,Calm,-,N/A,,Clear,0,2012-11-27 17:16:00
8:36 AM,30.2,24.8,80,30.01,10.0,Calm,Calm,-,N/A,,Clear,0,2012-11-27 17:36:00
8:56 AM,32.0,24.8,75,30.01,10.0,Calm,Calm,-,N/A,,Clear,0,2012-11-27 17:56:00
9:16 AM,32.0,24.8,75,30.00,10.0,Calm,Calm,-,N/A,,Clear,0,2012-11-27 18:16:00
9:36 AM,32.0,24.8,75,30.00,10.0,Calm,Calm,-,N/A,,Clear,0,2012-11-27 18:36:00
9:56 AM,33.8,24.8,70,30.01,10.0,Calm,Calm,-,N/A,,Clear,0,2012-11-27 18:56:00
10:16 AM,32.0,26.6,80,30.00,10.0,Calm,Calm,-,N/A,,Clear,0,2012-11-27 19:16:00
10:36 AM,33.8,26.6,75,30.00,10.0,ENE,3.5,-,N/A,,Clear,60,2012-11-27 19:36:00
10:56 AM,33.8,26.6,75,29.99,10.0,Calm,Calm,-,N/A,,Clear,0,2012-11-27 19:56:00
11:16 AM,33.8,26.6,75,29.98,10.0,ENE,8.1,-,N/A,,Clear,70,2012-11-27 20:16:00
11:36 AM,33.8,24.8,70,29.98,10.0,Calm,Calm,-,N/A,,Clear,0,2012-11-27 20:36:00
11:56 AM,33.8,26.6,75,29.97,10.0,ENE,4.6,-,N/A,,Clear,70,2012-11-27 20:56:00
12:16 PM,33.8,26.6,75,29.96,10.0,NE,5.8,-,N/A,,Clear,50,2012-11-27 21:16:00
12:36 PM,33.8,26.6,75,29.95,10.0,East,4.6,-,N/A,,Clear,80,2012-11-27 21:36:00
12:56 PM,33.8,24.8,70,29.95,10.0,Calm,Calm,-,N/A,,Clear,0,2012-11-27 21:56:00
1:16 PM,33.8,24.8,70,29.94,10.0,Calm,Calm,-,N/A,,Clear,0,2012-11-27 22:16:00
1:36 PM,33.8,24.8,70,29.93,10.0,Calm,Calm,-,N/A,,Clear,0,2012-11-27 22:36:00
1:56 PM,33.8,24.8,70,29.94,10.0,Calm,Calm,-,N/A,,Clear,0,2012-11-27 22:56:00
2:16 PM,33.8,24.8,70,29.93,10.0,NNW,5.8,-,N/A,,Clear,340,2012-11-27 23:16:00
2:36 PM,33.8,24.8,70,29.93,10.0,North,5.8,-,N/A,,Clear,350,2012-11-27 23:36:00
2:56 PM,33.8,24.8,70,29.92,10.0,North,6.9,-,N/A,,Scattered Clouds,350,2012-11-27 23:56:00
3:16 PM,33.8,26.6,75,29.91,10.0,Calm,Calm,-,N/A,,Partly Cloudy,0,2012-11-28 00:16:00
3:36 PM,33.8,24.8,70,29.91,10.0,Calm,Calm,-,N/A,,Partly Cloudy,0,2012-11-28 00:36:00
3:56 PM,33.8,24.8,70,29.91,10.0,Calm,Calm,-,N/A,,Partly Cloudy,0,2012-11-28 00:56:00
4:16 PM,33.8,24.8,70,29.90,10.0,NNW,4.6,-,N/A,,Partly Cloudy,340,2012-11-28 01:16:00
4:36 PM,33.8,24.8,70,29.90,10.0,North,4.6,-,N/A,,Partly Cloudy,350,2012-11-28 01:36:00
4:56 PM,33.8,24.8,70,29.90,10.0,North,3.5,-,N/A,,Partly Cloudy,10,2012-11-28 01:56:00
5:16 PM,33.8,26.6,75,29.89,10.0,NNE,6.9,-,N/A,,Partly Cloudy,30,2012-11-28 02:16:00
5:36 PM,35.6,26.6,70,29.88,10.0,ENE,6.9,-,N/A,,Partly Cloudy,70,2012-11-28 02:36:00
5:56 PM,33.8,26.6,75,29.88,10.0,Calm,Calm,-,N/A,,Overcast,0,2012-11-28 02:56:00
6:16 PM,33.8,26.6,75,29.87,10.0,SE,6.9,-,N/A,,Overcast,130,2012-11-28 03:16:00
6:36 PM,33.8,24.8,70,29.87,10.0,NNW,4.6,-,N/A,,Overcast,330,2012-11-28 03:36:00
6:56 PM,33.8,23.0,65,29.88,10.0,NNW,4.6,-,N/A,,Overcast,330,2012-11-28 03:56:00
7:16 PM,33.8,23.0,65,29.87,10.0,NNW,6.9,-,N/A,,Overcast,340,2012-11-28 04:16:00
7:36 PM,33.8,24.8,70,29.88,10.0,NNW,6.9,-,N/A,,Overcast,330,2012-11-28 04:36:00
7:56 PM,33.8,23.0,65,29.88,10.0,NNW,6.9,-,N/A,,Overcast,340,2012-11-28 04:56:00
8:16 PM,33.8,24.8,70,29.87,10.0,NNW,4.6,-,N/A,,Overcast,340,2012-11-28 05:16:00
8:36 PM,33.8,24.8,70,29.87,10.0,WNW,4.6,-,N/A,,Overcast,290,2012-11-28 05:36:00
8:56 PM,33.8,24.8,70,29.87,10.0,North,3.5,-,N/A,,Overcast,350,2012-11-28 05:56:00
9:16 PM,33.8,24.8,70,29.87,10.0,NNE,3.5,-,N/A,,Overcast,20,2012-11-28 06:16:00
9:36 PM,33.8,26.6,75,29.87,10.0,NNE,4.6,-,N/A,,Overcast,30,2012-11-28 06:36:00
9:56 PM,35.6,26.6,70,29.86,10.0,ESE,6.9,-,N/A,,Overcast,120,2012-11-28 06:56:00
10:16 PM,37.4,26.6,65,29.86,10.0,SE,15.0,19.6,N/A,,Overcast,130,2012-11-28 07:16:00
10:36 PM,37.4,26.6,65,29.87,10.0,ESE,12.7,17.3,N/A,,Overcast,120,2012-11-28 07:36:00
10:56 PM,35.6,26.6,70,29.87,10.0,ESE,6.9,-,N/A,,Overcast,120,2012-11-28 07:56:00
11:16 PM,37.4,28.4,70,29.87,10.0,ENE,6.9,-,N/A,,Overcast,70,2012-11-28 08:16:00
11:36 PM,37.4,26.6,65,29.86,10.0,ENE,5.8,-,N/A,,Overcast,70,2012-11-28 08:36:00
11:56 PM,35.6,26.6,70,29.85,10.0,Calm,Calm,-,N/A,,Overcast,0,2012-11-28 08:56:00